Погода в Черкесовском

Россия / Волгоградская область     50°41′08″N   42°33′56″E
темп.,
°C
ветер,
м/с
пор.,
м/с
влажн.,
%
обл.,
%
осадки,
мм/ч
давл.,
гПа
погр.,
м
25 февраля, чт
чт2500:00−17ю358697 0.0 1039191
03:00−15ююз488899 0.0 1037272
06:00−14ююз61095100 0.4 1034395
09:00−12ююз61194100 0.8 1032441
12:00−10юз71294100 0.9 1029526
15:00−7юз81494100 3.3 1025570
18:00−5юз81495100 1.1 1021494
21:00−1з71394100 1.8 1018440
26 февраля, пт
пт2600:00+1з71298100 0.2 1017330
03:00+1з51099100 0.3 1017278
06:00+1зсз51199100 0.2 1016292
09:00+1з4899100 0.4 1016197
12:00+2з410100100 0.1 1015219
15:00+2з61299100 0.2 1014304
18:00+2з71398100 0.0 1013419
21:00+2зюз61498100 0.2 1012370
27 февраля, сб
сб2700:00+2з61497100 0.1 1009448
03:00+1з51295100 0.1 1009380
06:00+1з61294100 0.0 1008398
09:00+1зюз61195100 0.0 1007447
12:00+1з611100100 0.1 1007538
15:00+1з51199100 0.2 1006502
18:00+1з61297100 0.1 1006569
21:00+1з6129798 0.2 1006548
28 февраля, вс
вс2800:000сз61198100 0.4 1007509
03:00−6ссз6109197 0.8 1009604
06:00−8ссз7985100 0.1 1011655
09:00−9ссз5886100 0.1 1014627
12:00−9ссз5885100 0.1 1015625
15:00−8ссз5884100 0.1 1016620
18:00−9ссз4889100 0.0 1018549
21:00−10ссз489193 0.0 1021476
1 марта, пн
пн100:00−11ссз479384 0.0 1022382
03:00−11ссз369376 0.0 1024280
06:00−12ссз379412 0.0 1025262
09:00−11ссз47896 0.0 1026363
12:00−9ссз358664 0.0 1027437
15:00−7сз358475 0.0 1027501
18:00−8зсз379134 0.0 1027177
21:00−8зюз359234 0.0 1027101